Theta_e
325 325 325 325 325 325 324 324 324 323 322 321 320 321 320 319 319 319 319 318 320 321 321 320 320 320 320 320 319 317 316 315 314 314 315 313 313 313 312 312 313 312 311 310 310 310 310 310 310 309 307 306 307 308 308 308 310 309 309 310 310 310 310 310 311 311 310 310 310 309 308 309 310 311 311 311 312 312 313 313 313 314 314 315 315
325 325 325 324 324 324 323 324 324 322 321 321 320 321 321 320 320 320 319 319 319 320 320 320 321 320 320 320 319 318 316 316 315 314 315 314 314 314 312 311 312 312 312 311 310 309 309 308 309 309 308 307 306 307 307 307 307 308 309 309 309 309 308 308 309 309 310 310 309 309 309 309 310 310 310 310 310 310 310 311 311 311 312 312 312
326 325 325 325 324 324 323 323 324 324 324 324 322 320 320 320 320 319 319 320 319 320 320 320 320 320 320 320 320 319 318 317 316 315 315 314 314 314 312 311 311 312 311 311 310 310 309 308 309 309 308 307 307 307 307 306 307 308 308 307 307 307 307 308 309 310 310 311 310 311 310 309 309 309 309 309 309 309 309 310 310 310 310 311 311
325 325 325 325 325 325 325 325 325 325 325 325 325 323 322 322 321 319 317 318 319 319 320 319 319 319 320 320 320 319 318 317 316 316 315 315 315 314 313 312 312 311 311 310 310 310 310 309 309 309 308 308 308 308 307 307 308 307 307 307 306 306 306 307 308 308 309 309 309 309 308 308 308 308 308 309 309 309 309 309 309 310 310 310 310
325 324 325 325 325 325 326 325 326 327 326 326 325 324 323 323 322 321 320 320 320 321 320 319 318 319 320 320 320 320 319 318 317 316 315 315 315 314 313 312 312 311 311 311 310 310 309 309 309 308 308 307 307 307 307 307 307 307 306 306 306 306 306 306 306 306 307 307 307 306 306 307 307 307 307 308 308 308 309 309 310 310 310 309 309
325 325 325 326 325 325 326 325 326 326 326 326 325 324 323 322 322 322 322 321 320 320 320 319 319 319 319 320 320 320 320 319 318 317 316 315 315 314 313 313 312 312 312 311 310 309 308 308 308 308 307 307 307 307 307 306 306 306 306 306 306 306 305 305 306 306 306 306 306 306 306 306 306 307 307 307 308 308 308 308 309 309 310 311 311
322 321 322 323 323 323 324 324 324 324 323 322 322 323 323 322 322 322 321 321 320 320 320 320 320 320 320 320 320 320 320 319 319 318 316 315 315 315 314 313 313 312 312 311 310 309 308 307 307 307 306 306 306 305 306 306 305 305 304 303 303 302 303 303 304 304 305 305 305 306 306 306 306 307 306 307 307 307 308 308 309 309 310 310 311
317 317 316 317 317 317 318 319 321 321 321 321 321 321 322 322 322 322 321 321 321 321 321 321 321 321 320 320 319 319 319 320 319 318 317 316 315 315 314 314 313 312 312 311 310 308 308 307 306 306 305 305 305 305 305 304 302 301 300 299 299 300 300 301 302 302 303 303 304 305 305 305 306 306 306 306 307 307 308 308 308 308 308 308 308
314 314 314 314 314 314 314 315 317 318 318 319 319 319 320 321 321 322 322 322 322 321 321 321 321 321 321 320 319 319 319 319 319 319 318 317 316 315 315 314 313 312 311 310 309 307 306 305 304 304 304 304 304 304 302 299 296 295 294 295 296 298 298 298 298 299 299 300 301 302 303 303 304 304 305 305 306 306 306 306 306 307 307 307 308
311 311 311 311 312 312 313 314 315 316 316 318 318 317 319 320 320 320 322 323 323 322 323 322 322 322 321 321 320 319 320 319 318 319 318 317 316 315 314 314 313 312 311 309 307 306 305 304 304 303 303 303 302 301 299 297 295 294 293 294 295 295 296 296 296 297 297 298 299 300 301 301 302 302 303 304 304 305 305 306 306 306 307 308 308
310 310 309 309 310 310 311 311 312 312 313 316 317 317 318 320 320 320 321 322 322 323 324 324 323 323 323 322 321 320 320 319 319 318 318 317 316 315 314 313 313 311 309 307 306 305 304 303 303 303 302 301 301 300 299 299 298 297 296 297 297 296 297 296 296 296 297 298 298 298 299 300 300 301 301 302 302 303 304 304 304 305 306 307 307
309 309 309 309 309 310 310 310 310 311 311 312 313 315 316 317 318 318 320 320 320 322 322 323 323 323 323 323 322 321 321 320 319 318 318 317 316 315 313 313 311 309 308 306 305 304 304 303 303 303 303 302 301 300 301 300 299 298 299 299 298 298 297 297 297 297 297 298 298 298 299 299 299 299 299 300 301 301 301 301 302 304 304 305 306
310 310 310 310 310 310 310 310 310 310 311 311 311 311 313 315 316 317 318 319 319 320 320 321 321 322 322 322 322 322 321 321 319 319 318 316 315 314 312 311 309 307 306 305 304 304 303 303 303 303 303 302 301 301 300 300 300 300 300 299 298 298 298 298 298 298 297 298 298 298 299 299 299 299 299 300 300 300 300 301 301 302 302 302 303
311 310 310 310 310 310 310 310 310 310 310 310 310 310 311 312 314 317 317 317 318 319 319 319 319 319 320 321 320 319 320 319 318 318 316 314 313 312 309 308 306 305 304 304 303 303 303 302 302 302 302 302 302 301 301 300 301 301 300 299 299 298 298 298 298 297 298 298 298 298 298 298 299 299 299 300 300 300 300 299 299 299 299 299 299
310 310 309 309 309 310 311 310 310 310 310 310 310 310 310 311 312 315 316 316 316 317 318 318 318 318 319 319 318 317 317 316 315 314 313 312 311 309 307 306 305 304 304 303 303 303 302 302 302 301 301 301 301 301 301 301 300 300 299 299 298 298 297 297 297 298 298 298 298 299 299 299 299 299 300 300 300 300 299 297 297 297 297 297 298
309 309 309 308 309 310 311 310 310 310 310 310 310 310 310 311 312 314 315 316 316 316 316 317 317 318 318 319 318 317 315 313 312 311 311 311 309 307 305 304 304 303 303 302 302 302 301 301 301 301 301 301 301 301 301 301 300 299 298 298 297 297 297 297 297 298 298 298 298 298 298 298 298 299 299 299 298 298 297 296 296 296 296 296 297
308 308 308 307 308 309 310 310 310 310 309 309 309 310 310 310 311 313 315 316 316 315 315 315 316 316 317 317 316 316 314 310 309 309 309 308 307 305 304 304 303 302 302 302 302 302 301 301 301 301 301 301 301 301 301 300 299 298 298 298 297 297 297 297 297 298 298 297 297 297 297 297 297 297 298 297 297 297 297 296 296 296 296 296 296
308 308 308 307 307 308 309 309 309 309 309 309 309 309 309 310 310 312 314 315 315 315 315 315 315 315 316 315 314 314 311 308 307 307 307 306 305 304 303 303 302 302 302 302 302 302 302 301 301 301 301 301 301 300 299 299 298 298 298 297 297 297 297 297 297 297 297 297 297 296 297 297 297 297 297 297 297 297 297 296 296 296 296 296 296
308 308 307 307 306 307 307 308 309 309 309 310 310 310 310 309 310 311 313 314 314 314 314 314 314 315 314 313 312 312 310 307 307 307 306 305 304 303 301 301 301 301 302 302 302 302 302 302 302 301 300 300 299 299 298 298 297 296 296 296 296 296 296 296 296 296 296 295 295 295 295 295 295 295 295 295 296 296 296 297 297 296 296 296 297
307 307 307 307 306 306 306 307 308 308 309 310 310 310 310 310 310 310 312 313 314 313 313 313 314 313 312 310 309 309 309 307 306 306 304 302 300 300 300 300 300 300 300 301 301 301 301 301 300 300 299 299 298 297 296 296 295 295 294 294 294 294 295 295 294 294 293 293 292 293 293 293 293 293 293 293 294 294 295 296 296 296 297 297 297
307 307 307 306 306 305 305 306 307 307 309 310 310 310 310 310 309 310 311 312 313 313 313 313 312 310 308 306 306 307 308 307 305 303 299 297 296 298 298 298 299 299 299 299 299 299 299 298 298 299 298 297 297 296 295 295 294 293 293 292 292 292 292 292 292 291 291 291 291 292 292 292 292 292 293 293 293 294 294 295 296 296 296 297 297
306 306 306 306 306 306 305 305 306 307 307 308 309 310 310 310 309 309 310 311 313 313 313 313 311 308 305 303 303 305 306 304 301 297 295 294 296 296 296 296 298 298 297 296 297 297 297 298 297 297 297 296 296 295 294 293 292 292 292 292 291 291 291 291 291 291 291 291 291 291 292 292 292 292 292 293 293 294 294 294 295 295 296 296 297
306 306 306 305 306 305 305 305 305 306 307 307 308 309 310 310 310 310 311 313 313 312 311 311 309 306 303 301 301 302 301 298 295 294 294 295 296 296 295 295 296 295 293 294 295 296 297 298 298 297 296 295 294 293 293 292 292 292 292 292 292 291 291 291 291 291 291 291 292 292 292 292 292 292 292 292 293 293 293 294 294 294 295 295 296
306 306 306 306 305 305 305 305 305 305 306 307 307 308 310 311 311 311 312 313 313 311 309 308 307 304 302 300 298 297 296 295 294 295 296 296 295 295 294 293 293 292 292 293 295 296 297 297 297 297 296 294 293 293 293 293 293 293 292 292 292 292 292 291 291 291 292 292 292 292 292 292 292 292 292 292 292 293 293 293 293 294 294 294 295
306 306 306 306 305 305 305 305 305 305 306 307 307 308 309 311 311 312 312 312 312 310 308 307 305 303 301 299 297 295 295 295 295 295 294 294 293 293 293 293 293 294 294 294 295 296 296 296 296 295 294 294 293 293 293 293 293 292 292 292 292 292 292 292 292 292 292 292 292 292 292 292 293 292 293 293 293 293 293 293 293 293 293 294 294
305 305 305 305 305 305 306 305 306 306 306 307 307 307 309 310 311 311 311 311 310 309 306 304 303 302 300 299 297 295 295 294 294 294 294 294 294 295 295 296 296 296 296 296 296 296 296 295 294 294 293 293 294 293 293 293 293 293 293 293 293 292 293 292 292 293 293 292 292 292 292 292 293 293 293 293 293 293 293 293 293 294 294 294 294
304 304 305 305 304 305 305 305 305 306 306 306 307 307 308 310 310 309 310 310 309 307 304 302 301 301 300 298 296 295 294 294 294 294 295 296 296 296 296 296 296 296 296 296 295 294 293 293 293 293 294 294 294 294 294 293 293 293 292 292 292 292 292 292 292 292 292 292 292 292 292 292 292 292 292 293 293 293 293 293 294 294 294 294 294
303 303 303 303 303 303 303 303 304 305 305 306 307 308 308 308 308 308 308 308 308 306 303 301 301 301 300 299 298 297 296 296 295 295 295 296 296 296 296 295 295 295 294 294 293 292 292 293 294 294 294 294 294 293 293 293 292 292 292 291 291 291 291 291 291 291 292 292 292 292 292 292 292 292 292 292 292 293 293 293 293 294 294 294 294
302 302 302 303 303 303 303 303 304 304 305 307 307 307 307 307 307 307 307 307 307 305 303 302 301 300 299 298 298 298 297 297 295 295 294 294 294 294 294 293 293 292 292 292 292 292 293 294 294 294 293 293 293 292 292 292 292 291 291 291 291 291 291 291 291 291 291 292 292 291 291 291 291 292 292 292 292 292 292 293 293 293 294 294 294
302 302 302 302 303 303 303 304 303 304 306 306 305 305 306 306 306 306 306 306 304 303 302 300 299 298 298 298 298 298 296 295 294 293 292 292 291 291 292 292 291 291 292 292 292 293 293 293 293 293 293 292 292 292 292 291 291 291 291 291 291 291 291 291 291 291 291 291 291 291 291 291 291 291 291 291 291 291 292 292 292 293 293 293 294
302 302 302 302 303 303 303 303 304 305 306 305 304 303 303 303 303 303 303 302 301 300 300 299 298 298 298 298 297 295 294 293 292 292 291 291 290 290 291 291 291 291 292 292 292 292 293 293 293 293 292 292 292 292 291 291 291 291 291 291 291 291 291 291 291 291 290 291 291 290 290 290 290 290 290 290 291 291 291 291 291 292 292 292 293
302 302 302 302 302 303 303 303 304 305 305 303 302 301 299 298 298 299 299 299 299 299 299 298 298 298 298 297 295 294 293 293 292 292 291 291 290 290 291 291 291 291 292 292 292 292 293 292 292 292 292 291 291 291 291 291 291 291 291 291 291 291 291 290 290 290 290 290 290 290 290 290 290 290 290 290 290 290 290 291 291 291 291 292 292
303 302 302 302 303 303 303 304 305 305 303 301 300 299 298 297 295 295 296 297 298 298 297 297 297 297 297 296 296 295 294 293 292 292 291 291 291 291 292 292 291 292 292 292 292 292 292 292 291 291 291 291 291 291 291 291 291 291 291 291 291 290 290 290 290 290 290 290 290 290 290 289 289 289 289 289 290 290 290 290 290 290 291 291 291
303 302 303 303 303 303 304 305 305 304 301 300 298 298 297 296 295 294 294 294 294 295 295 295 296 296 295 295 294 293 292 292 292 292 292 291 292 292 292 292 292 292 292 292 292 292 292 291 291 291 291 291 291 291 290 290 291 291 290 290 290 290 290 290 290 290 290 290 290 290 289 289 289 289 289 289 289 289 290 290 290 290 291 291 291
302 303 303 303 303 304 306 305 304 302 300 299 298 297 295 295 295 294 294 293 293 292 292 293 293 293 292 292 291 291 292 292 293 293 293 292 292 292 292 292 293 293 292 292 292 292 291 291 291 291 290 290 290 290 290 290 290 290 290 290 290 289 289 289 289 289 289 289 289 289 289 289 289 289 289 289 289 289 289 290 290 290 290 291 291
302 302 303 303 304 305 305 304 302 300 299 298 296 295 294 294 294 294 293 293 292 292 291 291 291 291 291 291 291 291 292 293 293 293 293 293 292 292 293 293 293 293 292 292 292 291 291 291 291 290 290 290 290 290 290 290 290 290 289 289 289 289 289 289 289 289 289 289 289 289 289 288 288 288 289 289 289 289 289 289 290 290 290 290 291
301 302 303 303 304 304 303 301 300 298 297 296 295 294 294 294 294 293 293 292 292 291 291 291 291 291 291 291 291 292 293 293 293 293 293 293 293 293 293 293 293 292 292 292 292 291 291 291 290 290 290 290 290 290 290 290 289 289 289 288 288 288 288 288 288 288 288 288 288 288 288 288 288 288 288 289 289 289 289 289 290 290 290 290 291
301 302 303 304 304 302 300 299 297 297 295 295 295 295 295 295 294 294 294 293 292 291 291 291 291 291 291 291 291 292 292 293 293 293 294 294 294 294 294 293 293 292 292 292 291 291 291 291 290 290 290 290 290 290 290 289 289 288 288 288 288 288 288 288 288 288 288 288 288 288 288 288 288 288 288 289 289 289 289 289 289 289 290 290 290
303 303 303 303 302 300 298 297 296 295 295 295 295 295 295 295 295 295 294 294 293 292 291 291 291 291 291 291 292 292 292 292 293 294 294 294 294 294 294 293 292 292 291 291 291 291 291 291 290 290 290 290 290 289 289 289 289 288 288 288 288 288 288 288 288 288 288 288 288 288 288 288 288 288 288 289 289 289 289 289 289 290 290 290 290
302 301 301 300 299 298 297 296 295 295 295 296 296 296 296 296 296 296 295 295 294 294 293 292 292 293 293 292 292 292 293 293 293 294 295 295 294 294 294 293 292 292 291 291 291 291 291 290 290 290 290 290 289 289 289 288 288 288 288 288 288 288 287 287 287 287 287 287 287 287 287 288 288 288 288 288 289 289 289 289 290 290 290 290 290
300 299 298 298 297 296 296 296 296 296 296 296 296 296 296 296 297 296 296 296 295 295 295 294 294 295 294 293 293 293 294 295 295 295 295 295 294 294 293 293 292 292 291 291 291 291 290 290 290 290 290 289 289 289 289 288 288 287 287 287 287 287 287 287 287 287 287 287 287 287 287 287 288 288 288 288 289 289 289 289 289 290 290 290 291
297 297 296 297 297 297 297 297 297 297 297 296 297 297 297 297 297 297 297 297 296 296 295 295 294 294 294 294 294 294 295 295 295 295 295 294 294 293 293 293 292 291 291 291 291 290 290 290 290 289 289 289 289 288 288 287 287 287 287 287 287 287 287 287 287 287 287 287 287 287 287 288 288 288 289 289 289 289 289 290 290 290 290 291 291
297 297 297 297 297 297 297 297 297 297 297 297 297 297 297 298 298 298 297 297 296 296 295 294 293 293 293 294 294 294 295 295 294 294 294 294 293 293 293 293 292 291 291 291 291 290 290 290 289 289 289 289 288 288 287 287 287 287 287 287 287 287 287 287 287 287 287 288 287 288 288 288 289 289 289 289 290 290 291 291 291 291 291 291 292
297 297 297 297 297 297 297 297 297 297 297 297 298 298 298 298 298 298 297 297 296 296 295 294 293 293 293 294 294 294 295 295 294 294 294 293 293 293 292 292 291 291 290 290 290 290 289 289 289 289 289 289 288 287 287 287 287 288 288 288 287 287 287 287 287 288 288 288 288 288 289 289 289 289 289 290 290 291 292 293 293 293 292 292 292
298 298 298 298 298 298 298 298 298 298 298 298 298 298 298 298 297 297 297 297 296 296 295 295 295 295 294 294 294 294 294 294 293 293 293 293 292 292 292 291 291 290 290 290 290 290 289 289 289 289 289 288 288 288 288 288 288 288 288 287 287 287 287 288 288 289 289 289 289 289 289 289 290 290 290 290 291 291 292 293 294 294 293 293 293
298 298 298 298 298 298 298 298 298 298 298 298 297 297 297 296 296 296 296 296 296 296 295 295 295 295 295 294 294 293 293 293 293 292 292 292 291 291 291 290 289 289 289 289 290 289 289 289 289 289 288 288 288 288 288 288 288 287 287 287 287 288 288 289 289 290 289 289 289 289 289 290 290 290 290 291 291 292 292 293 293 293 293 293 293
297 297 297 297 297 297 297 297 297 297 297 296 296 296 295 295 295 295 296 296 296 295 295 295 295 294 294 293 292 292 292 292 292 292 292 291 291 291 290 289 288 288 288 289 289 289 289 289 289 289 288 288 289 288 288 288 288 287 287 287 288 289 289 290 290 290 290 290 290 290 289 290 290 290 290 291 291 291 292 293 293 293 293 293 293
297 297 297 297 296 296 296 296 295 295 295 295 295 295 295 295 295 295 295 295 295 295 294 294 294 293 292 292 292 291 291 291 291 291 291 291 291 290 289 288 287 287 287 288 289 289 289 289 289 289 289 289 289 289 289 288 287 286 286 288 289 290 290 290 290 290 290 290 290 290 290 290 290 290 291 291 291 291 292 292 292 292 292 292 292
296 296 296 296 296 296 296 295 295 295 294 294 294 294 295 295 294 294 294 294 294 294 294 293 293 292 292 291 291 291 290 290 290 290 291 291 290 289 288 287 286 286 287 288 289 289 289 289 289 289 289 289 289 289 289 288 286 285 286 288 289 290 290 291 291 290 290 290 290 291 290 290 290 291 291 291 291 291 291 291 292 292 291 291 291
295 295 295 296 296 296 296 295 295 294 294 294 294 294 293 293 293 293 293 293 292 292 292 292 292 291 291 290 290 290 290 289 289 290 290 290 289 288 287 286 286 286 287 288 288 289 289 289 289 289 289 289 289 289 288 287 286 285 285 287 289 290 290 290 291 291 290 290 290 290 291 291 291 291 291 291 291 291 291 291 291 291 291 291 291
294 294 294 294 294 294 294 294 294 294 293 293 293 292 292 292 292 291 291 291 291 291 291 290 290 290 289 289 288 288 287 287 288 288 288 288 287 287 286 286 285 286 287 288 288 288 288 288 289 289 289 289 289 289 288 287 286 285 285 286 288 290 290 290 291 291 290 290 290 290 290 291 291 291 291 291 291 291 291 291 291 291 291 291 291
Wind_Speed
9 12 12 12 14 15 14 13 13 13 12 11 12 14 17 17 15 15 16 16 16 17 17 17 17 16 16 15 15 14 14 13 13 12 12 11 11 10 10 9 9 8 7 6 5 5 3 3 3 2 2 2 2 2 4 5 6 7 6 6 6 5 4 6 7 8 13 14 15 17 17 17 17 16 17 18 18 17 17 18 17 18 18 19 19
9 8 7 9 12 13 13 11 10 13 14 13 14 15 16 17 15 14 16 16 16 18 17 17 16 16 16 16 17 16 16 16 15 14 13 12 12 12 11 11 10 10 10 8 7 7 5 4 4 4 3 3 3 4 5 5 5 7 6 5 6 6 5 8 10 10 12 15 15 16 16 15 15 16 16 18 19 19 19 19 18 18 19 19 20
8 8 6 5 7 9 11 10 8 10 12 12 15 17 17 17 16 15 15 14 14 16 17 18 17 17 17 17 18 18 17 17 16 15 15 14 14 14 13 12 12 11 11 10 9 9 7 5 4 5 5 4 3 3 4 5 5 6 7 7 8 10 9 10 11 11 13 15 14 15 15 15 16 17 17 18 19 18 19 19 18 19 19 19 20
10 10 8 4 4 5 7 6 5 6 8 8 10 12 12 13 14 13 12 13 13 13 16 18 18 17 19 19 18 18 18 18 18 17 17 16 16 16 15 14 13 13 12 10 10 9 9 7 6 6 6 4 4 4 4 4 5 5 7 7 8 10 10 9 10 11 13 14 14 15 16 17 18 18 17 18 18 18 18 18 18 19 19 19 20
11 12 11 9 7 4 4 4 3 4 5 6 8 9 7 5 6 8 10 11 10 10 12 15 16 17 20 20 19 18 18 18 19 19 18 18 18 17 15 14 14 13 12 11 10 10 9 8 7 7 6 5 4 5 4 3 4 5 7 8 9 11 12 12 12 13 14 16 17 17 17 18 18 18 17 18 19 18 17 17 17 18 19 20 21
15 15 14 14 12 9 6 3 3 5 5 5 7 10 10 7 5 7 10 11 13 16 18 17 17 16 17 19 19 19 19 19 19 20 19 19 19 18 16 15 14 13 12 11 10 10 9 8 7 7 7 6 5 5 4 4 4 5 6 8 9 10 12 12 12 13 15 17 18 18 19 18 18 18 17 17 19 19 19 19 18 18 17 18 19
14 15 14 14 13 11 9 5 2 2 3 4 5 8 10 11 10 10 12 13 15 21 24 21 18 17 17 18 19 19 19 18 19 20 19 20 20 19 17 16 14 13 12 11 10 10 10 8 8 8 7 6 6 5 5 4 4 4 5 6 8 9 11 12 12 14 15 17 17 17 18 18 18 18 17 17 17 18 18 19 18 17 17 18 20
13 12 12 12 11 10 9 8 5 4 3 3 3 4 6 6 8 10 14 16 17 20 20 18 16 18 20 21 20 20 20 19 19 19 20 21 21 20 18 17 15 14 13 12 11 10 10 9 8 8 8 9 9 8 7 6 6 7 7 6 7 8 9 10 12 14 15 16 17 17 18 18 18 18 17 16 16 15 16 18 20 21 22 23 23
14 13 13 11 9 8 7 7 6 4 3 3 3 4 4 3 4 7 11 16 20 21 20 19 20 21 22 22 24 24 24 24 24 23 22 22 21 20 19 18 17 16 15 13 12 12 12 11 9 10 11 12 11 10 9 9 11 11 11 9 8 8 8 9 11 13 15 16 17 17 17 17 17 18 18 17 18 19 20 21 23 23 23 23 23
12 11 11 10 9 8 7 6 5 3 3 3 3 3 3 4 4 7 11 15 17 18 17 18 20 21 21 23 25 25 26 28 29 26 24 23 22 21 20 18 17 16 15 14 13 12 12 11 11 13 14 13 12 12 12 11 10 10 11 11 10 9 8 10 11 12 13 14 16 16 16 16 17 18 18 18 19 21 20 20 20 21 21 20 19
7 7 7 6 6 6 5 5 5 3 2 2 1 2 3 4 5 8 11 12 11 10 10 12 15 17 20 22 22 23 25 28 28 25 23 23 23 22 20 18 16 15 14 13 13 12 11 10 11 13 14 14 14 14 13 10 8 9 10 10 9 9 10 11 13 13 13 14 15 16 16 17 17 17 19 20 20 19 19 20 21 21 20 17 15
5 4 4 4 4 4 3 3 3 3 2 1 0 1 2 3 5 6 7 8 8 7 7 9 10 12 15 18 20 20 23 26 26 25 24 24 23 21 19 18 16 14 13 12 11 11 11 11 11 11 11 12 12 12 10 10 10 11 11 10 10 10 11 13 14 15 15 16 16 16 16 18 18 19 19 19 20 21 22 22 20 19 19 17 16
8 7 5 4 4 3 3 2 3 3 2 1 1 2 4 5 5 6 7 7 7 8 8 8 10 11 12 14 17 18 20 23 25 26 26 25 24 21 20 19 17 14 12 11 11 11 11 11 10 9 9 10 10 10 10 12 13 13 12 12 12 12 13 14 15 17 19 21 21 20 19 18 19 19 19 19 22 23 22 20 18 18 20 19 20
8 8 7 6 6 5 4 3 2 1 1 1 2 3 5 6 7 7 7 8 8 8 9 10 12 12 10 11 13 14 16 19 21 25 26 26 25 22 19 18 16 13 11 11 12 12 10 8 8 8 9 9 10 10 10 11 11 10 9 10 11 12 14 15 17 19 21 24 26 26 24 23 22 23 23 22 21 20 18 18 19 21 24 25 27
6 6 5 5 5 6 5 4 2 1 1 2 3 4 5 7 8 8 8 9 9 10 10 12 13 13 11 11 11 11 13 16 18 22 24 24 24 21 17 14 13 12 11 11 11 11 10 9 9 10 11 10 10 11 11 11 11 10 10 11 13 15 16 17 18 20 21 22 24 25 25 24 24 24 23 22 21 22 24 26 25 25 27 29 30
4 5 5 4 5 5 5 3 2 2 2 2 3 5 6 7 8 8 9 9 9 10 10 11 12 12 12 13 12 12 13 14 16 19 21 23 22 19 14 12 14 13 12 12 12 12 12 11 12 12 13 13 13 14 14 14 14 14 14 15 17 19 19 19 19 19 21 21 22 24 24 24 24 25 26 27 28 29 31 30 27 26 27 27 26
6 5 5 5 5 5 4 4 3 3 3 3 4 4 5 6 7 8 9 9 10 11 11 10 10 10 12 13 14 14 15 16 17 19 20 21 19 15 12 12 13 11 10 10 10 12 13 12 13 13 13 13 13 13 13 14 15 15 17 18 19 20 19 19 19 19 20 21 22 23 24 25 25 25 26 28 30 30 31 29 25 23 22 20 19
6 5 5 5 4 4 5 5 4 4 4 5 5 4 5 6 8 9 9 10 11 10 10 10 8 6 10 13 14 15 17 18 18 18 18 18 16 15 13 10 9 9 9 10 12 12 13 14 14 14 14 13 13 12 13 14 14 14 15 16 17 19 19 20 20 20 20 21 21 22 23 24 25 24 24 24 25 25 29 30 27 24 21 18 18
5 5 5 5 5 5 6 5 5 6 6 6 5 5 6 7 8 9 10 11 11 11 12 10 5 6 10 11 11 13 16 18 18 18 18 16 15 15 13 9 7 8 10 13 14 13 12 12 13 15 16 13 12 12 12 12 12 12 13 14 16 19 20 20 20 21 22 24 25 26 27 28 29 30 29 28 26 24 25 27 27 26 23 21 19
8 7 7 7 7 8 7 7 8 8 7 7 6 6 7 7 9 10 10 11 11 11 11 8 10 10 8 9 10 12 15 16 17 17 16 15 14 14 12 7 4 6 8 9 9 8 7 7 8 11 12 11 9 9 10 10 12 13 15 17 19 20 21 22 23 25 27 29 29 29 29 29 29 29 29 29 28 26 25 26 26 26 25 23 21
9 9 9 9 10 10 10 10 10 9 8 8 7 8 8 9 10 11 12 12 11 8 5 10 15 13 9 9 11 11 12 15 17 17 16 15 12 12 11 5 2 5 6 5 4 5 7 6 4 6 8 8 8 10 12 14 16 17 19 19 19 20 21 22 24 24 25 25 25 24 23 23 22 22 22 22 23 23 23 24 24 24 25 24 22
11 11 12 12 12 13 13 12 11 10 9 9 9 10 10 11 12 13 14 11 7 5 8 14 16 13 11 10 10 11 13 17 18 19 17 15 13 12 10 6 3 4 5 5 6 7 8 7 5 4 5 9 12 15 18 19 19 18 17 17 17 17 18 20 22 23 22 21 21 21 20 19 19 19 19 19 20 20 21 22 22 22 24 25 24
14 13 14 14 14 14 14 14 13 12 11 12 12 11 11 12 12 13 12 8 8 10 13 17 17 14 13 12 11 14 17 17 18 18 17 15 13 10 8 7 5 5 6 6 6 7 8 7 6 6 10 14 17 18 17 16 15 15 14 15 16 17 18 21 22 22 21 20 19 19 19 19 19 19 19 19 20 20 21 21 22 22 23 24 24
15 15 16 16 16 16 16 16 16 15 14 15 15 14 13 13 11 8 7 9 12 14 15 16 17 15 14 13 14 17 18 17 16 16 15 13 10 8 6 6 6 6 7 7 7 7 9 10 12 14 17 18 16 15 14 12 12 13 14 16 17 18 20 21 20 19 19 18 18 18 18 19 19 19 19 20 20 21 22 23 23 24 25 25 25
16 17 16 16 16 16 16 16 16 16 16 16 16 15 12 10 7 5 8 10 12 14 15 15 15 16 15 15 17 19 18 16 15 12 11 9 7 6 4 3 2 3 4 4 5 8 10 12 15 18 18 15 12 12 11 11 13 15 16 17 17 18 20 19 17 17 18 18 18 19 19 20 21 22 23 23 23 23 23 24 24 25 26 27 27
20 20 19 19 18 17 16 16 15 15 15 15 15 14 9 6 8 9 10 11 12 14 16 16 15 16 16 16 19 19 17 15 14 13 11 10 8 5 3 1 1 4 6 5 5 7 9 13 16 16 15 13 13 13 12 12 14 15 15 16 16 17 18 17 17 18 18 19 19 20 21 22 23 24 24 24 24 24 24 25 25 24 24 24 25
21 20 20 21 21 19 17 16 14 14 15 14 12 10 6 6 11 12 12 13 13 15 17 18 17 17 17 18 20 20 18 16 15 14 12 9 6 3 1 2 2 4 6 6 7 9 12 13 13 12 12 12 13 14 13 13 14 14 15 16 16 17 18 18 20 21 21 22 22 22 22 23 23 23 23 22 23 23 23 24 25 24 23 23 23
19 19 19 18 17 17 17 15 14 15 15 10 6 4 4 6 10 13 13 14 16 18 18 20 20 20 20 21 21 19 17 16 15 14 11 9 8 6 4 4 3 3 6 9 11 11 10 8 8 9 11 11 11 11 12 13 14 15 16 17 17 18 19 20 21 22 23 23 23 22 23 23 23 23 23 23 23 22 22 23 23 23 22 21 21
20 19 19 18 17 17 17 16 16 15 11 5 4 5 6 8 9 10 11 14 18 21 22 22 22 23 23 22 21 20 20 18 16 13 11 10 9 7 5 5 5 5 6 8 8 6 6 7 8 9 10 11 11 12 13 13 15 16 17 18 18 19 19 20 21 22 22 23 23 23 24 24 24 24 23 23 23 23 23 23 23 23 23 22 21
20 19 18 17 17 17 17 17 17 14 7 10 11 10 9 8 8 9 10 12 16 20 22 22 24 25 25 21 19 21 22 19 15 11 9 8 6 4 3 2 2 2 2 3 4 5 7 9 9 9 11 12 12 13 13 14 16 16 17 18 19 20 20 21 22 23 24 24 25 25 25 25 26 26 25 25 25 24 24 24 24 23 22 21 21
20 19 17 17 18 19 18 17 16 11 9 15 16 14 14 11 9 9 11 13 16 18 20 21 22 23 23 22 21 20 18 15 13 10 8 5 3 3 2 3 4 4 3 4 5 6 8 8 9 10 11 12 12 13 14 16 17 17 18 19 21 21 22 23 24 25 25 25 25 25 26 26 26 26 26 26 26 25 25 25 25 24 23 22 22
20 19 19 19 19 19 18 17 13 9 14 17 18 20 21 20 17 15 15 18 21 20 19 20 20 20 19 20 21 19 15 12 11 8 5 3 3 4 5 5 7 6 4 5 6 6 7 9 10 11 11 11 12 14 16 17 18 18 19 19 21 22 24 25 26 25 25 26 26 26 26 26 26 27 27 27 26 25 25 24 24 24 24 23 23
22 21 21 20 18 18 17 15 12 15 17 18 21 25 25 25 24 23 22 22 23 22 21 20 20 19 17 15 14 14 13 11 9 6 4 4 5 6 6 4 4 4 5 5 6 6 9 10 10 10 11 13 14 16 17 18 18 19 19 20 22 24 25 26 27 26 27 27 28 27 27 27 27 27 27 27 26 25 24 24 24 23 23 23 23
23 23 22 20 18 17 14 13 16 19 19 20 24 26 26 28 28 27 27 25 22 21 22 20 18 16 15 12 12 12 12 10 7 6 6 7 7 6 4 3 3 1 2 5 6 7 9 9 10 11 12 14 15 17 18 19 19 20 21 23 24 25 26 27 27 27 27 27 27 26 27 27 27 27 26 26 25 24 24 23 23 22 22 22 22
22 22 22 21 18 14 12 15 18 20 22 23 24 25 26 27 27 25 24 24 21 20 20 20 17 15 14 14 13 12 11 10 10 10 9 8 6 3 4 6 5 3 3 4 5 7 8 9 10 11 13 14 16 18 19 19 20 22 23 24 25 26 27 28 27 27 27 27 26 27 28 28 28 27 27 26 25 24 23 23 23 22 22 22 21
22 21 20 20 17 14 15 19 22 24 24 25 26 27 26 25 24 24 24 24 23 20 19 20 18 15 14 14 12 11 11 12 12 11 8 6 3 1 4 5 3 2 3 4 6 7 8 10 11 12 13 15 17 18 19 20 22 24 25 26 26 27 27 27 28 28 28 28 28 29 29 29 28 27 26 26 25 25 25 24 24 23 24 24 23
24 21 18 17 18 18 21 24 27 28 27 27 30 30 27 25 25 25 23 23 22 20 19 20 20 17 15 13 12 12 12 11 10 8 6 4 2 2 4 3 3 4 4 5 6 7 8 10 11 12 14 15 17 18 19 20 23 25 26 26 27 27 28 29 29 30 30 29 29 29 28 28 28 27 26 25 25 24 24 24 24 23 24 24 23
26 24 21 20 21 23 26 29 31 30 29 28 30 30 28 26 25 23 21 21 21 20 20 20 20 18 16 14 13 13 11 10 10 8 6 5 3 2 3 3 3 4 5 6 7 7 8 9 10 12 14 16 18 19 20 22 24 25 26 27 28 28 29 29 30 30 29 29 28 28 28 27 27 27 26 25 24 24 23 23 23 22 23 23 22
22 23 24 24 26 30 33 33 32 31 29 27 28 28 27 25 22 20 20 20 19 19 20 19 18 17 16 15 14 13 11 11 11 10 8 7 4 0 2 3 4 4 5 6 6 7 8 9 11 13 15 16 18 19 21 23 25 26 27 28 28 28 29 30 30 29 29 28 28 28 27 27 27 26 25 24 24 23 23 23 23 22 22 21 21
19 23 27 29 32 35 35 34 31 29 28 28 27 26 24 23 21 20 20 20 18 19 19 18 16 16 16 15 15 13 12 13 13 9 5 2 2 3 4 4 4 4 5 6 6 7 8 9 11 13 15 16 18 20 22 24 27 28 28 28 28 29 30 30 30 29 29 29 28 28 27 27 26 25 24 23 23 23 23 23 23 22 22 22 22
26 29 33 35 35 34 33 31 29 28 29 28 25 24 23 22 21 21 22 21 19 18 18 16 15 17 17 15 14 11 7 7 7 4 4 3 4 5 5 4 4 5 5 6 7 7 8 9 11 13 15 17 19 21 23 25 27 28 28 28 28 29 30 31 31 30 30 29 28 27 26 26 25 24 23 23 23 22 23 23 22 22 22 21 21
32 32 33 33 32 30 29 28 28 28 27 25 23 23 22 21 20 20 21 19 17 16 16 15 15 16 15 11 9 6 3 3 4 5 5 4 4 4 4 5 5 5 6 7 7 7 8 9 11 13 15 18 21 22 23 26 28 28 28 28 28 28 30 31 31 31 30 29 28 27 26 26 25 24 23 23 22 21 21 21 21 20 19 18 19
32 31 29 28 26 26 25 26 26 26 24 22 22 22 21 19 18 19 18 16 17 18 16 13 12 11 8 6 5 5 3 3 3 3 3 3 3 3 5 6 6 6 6 7 6 7 8 9 11 13 16 18 20 22 24 25 27 28 28 28 29 29 30 31 31 32 31 30 29 28 26 25 24 23 22 21 20 20 19 19 18 16 15 15 15
29 27 26 25 24 24 24 23 23 22 21 19 19 19 18 17 16 14 14 17 19 17 13 12 11 9 7 7 6 5 4 3 3 2 2 2 2 3 5 6 6 5 6 7 8 7 8 9 11 14 16 18 20 23 24 26 27 28 28 28 30 31 31 32 32 32 31 30 28 27 25 24 23 22 21 19 18 17 16 14 13 13 14 14 14
24 24 24 24 23 22 23 24 24 23 21 19 17 17 17 16 16 16 17 18 18 16 13 11 10 8 7 7 4 3 4 6 4 3 4 4 4 5 6 7 6 4 5 8 10 9 9 10 12 14 16 18 21 23 26 27 28 28 28 28 29 31 32 32 31 31 30 28 26 25 24 23 21 20 19 17 16 14 13 11 9 8 9 11 11
25 25 25 24 23 22 23 24 24 23 21 20 19 18 17 17 17 17 16 15 14 13 12 10 8 7 7 6 5 6 7 6 4 3 4 6 7 5 5 7 8 5 5 7 9 9 10 11 12 14 17 19 22 25 27 28 28 28 28 29 30 31 32 31 29 29 28 26 24 24 23 21 20 19 18 16 14 12 11 9 7 6 4 5 6
26 26 26 25 24 24 24 23 22 21 20 18 17 16 16 16 16 16 15 14 12 11 10 9 8 7 7 7 6 6 5 5 4 2 2 6 5 3 4 7 7 5 4 6 8 10 11 12 12 14 17 20 23 26 27 28 29 29 29 30 31 31 31 29 28 27 27 25 22 21 22 20 19 18 17 16 14 12 9 8 6 4 3 3 3
24 24 23 22 22 21 21 21 20 19 18 18 17 16 15 14 14 13 13 12 11 10 9 9 8 7 7 6 5 5 4 4 4 2 4 4 4 3 5 7 6 5 5 6 8 10 12 12 13 15 18 21 24 25 26 29 31 31 30 30 30 30 29 28 26 26 27 25 21 21 21 20 19 18 16 15 14 12 8 6 6 3 1 1 4
23 23 22 21 20 18 18 17 17 16 16 15 15 15 14 14 13 12 11 11 10 9 9 8 7 7 6 5 5 5 5 4 3 3 5 6 6 5 6 6 6 6 5 6 7 10 12 13 14 15 18 21 24 25 26 30 32 32 30 29 29 29 28 26 25 26 27 25 22 21 21 21 20 19 17 15 14 12 9 6 5 4 3 4 7
21 21 20 19 18 17 16 16 15 15 14 14 14 15 14 14 13 12 11 10 10 10 9 8 8 7 6 6 6 5 5 4 4 3 4 6 7 7 7 7 6 5 5 6 9 11 12 13 14 16 18 21 23 24 27 31 32 31 29 28 27 28 28 26 24 25 27 25 22 21 21 21 21 20 19 16 14 14 11 9 8 7 8 9 10
20 19 18 17 17 16 15 15 15 15 14 14 14 14 14 13 12 12 12 11 10 10 9 8 8 8 7 6 6 5 5 4 3 3 3 5 7 7 6 7 7 6 6 8 9 10 11 13 14 16 19 21 22 24 28 31 31 30 29 28 26 26 28 26 24 24 27 26 22 21 21 21 20 20 20 18 16 14 12 11 10 10 11 12 12
Wind_Direction
149 160 177 182 179 178 178 177 173 177 186 186 175 173 178 186 195 193 187 186 187 186 186 193 197 195 195 196 196 196 195 196 196 193 195 193 187 190 190 186 190 192 193 193 190 196 204 208 222 252 295 345 349 316 299 284 275 275 261 247 257 258 265 285 289 293 298 303 309 311 310 314 317 318 319 316 314 313 310 306 302 298 295 295 293
144 157 174 174 171 174 178 174 168 178 189 198 199 195 189 190 195 194 190 191 193 191 192 198 202 200 201 203 202 202 201 201 200 197 200 200 196 198 196 192 197 198 194 196 200 203 207 214 215 218 235 275 296 301 317 324 313 304 294 285 295 299 301 302 300 299 300 302 305 305 307 311 311 310 310 308 307 308 307 304 302 300 297 295 292
148 159 164 171 165 157 163 172 178 177 176 184 199 207 207 204 200 194 185 186 197 203 200 200 204 206 209 210 208 208 205 204 204 201 203 205 202 203 202 197 200 201 197 201 208 205 204 212 215 211 221 248 275 289 313 322 319 321 323 323 318 309 299 292 287 283 286 292 297 301 304 307 305 303 303 301 301 302 301 300 298 295 295 294 292
159 159 151 161 164 135 140 161 180 183 180 189 203 208 210 215 220 220 208 199 206 215 210 207 210 212 214 215 215 214 211 209 208 206 207 209 207 207 207 203 204 205 202 204 209 207 203 207 213 217 219 228 249 272 288 292 294 311 322 319 314 312 311 307 298 293 291 295 300 303 304 304 302 301 302 301 300 299 296 297 296 295 295 294 294
132 142 135 132 133 131 140 155 173 184 187 199 201 193 197 243 271 263 250 243 245 247 229 215 215 217 216 217 218 219 217 214 213 211 210 212 211 210 209 208 208 208 207 208 210 206 201 206 214 215 215 221 236 254 270 287 300 309 316 316 312 312 317 319 314 311 308 304 304 304 303 301 300 299 300 299 297 296 295 293 292 293 294 294 295
101 113 119 123 125 124 121 132 198 203 206 223 214 202 204 222 249 263 267 268 269 267 257 240 233 233 225 220 222 225 223 220 219 217 215 215 215 213 211 210 210 210 210 211 211 211 208 211 218 215 213 222 230 244 265 283 295 301 307 310 310 311 315 316 312 308 304 300 300 302 301 300 298 297 298 298 298 300 302 298 293 290 290 293 299
95 95 98 106 113 113 109 114 149 186 203 222 219 212 212 210 216 236 254 257 257 259 259 254 249 244 234 227 226 227 226 226 225 222 219 219 217 213 211 210 208 209 211 209 210 217 218 216 219 218 216 221 229 234 239 244 255 270 290 302 309 314 315 315 312 307 303 300 297 296 296 297 296 296 298 297 296 298 301 304 309 309 307 309 310
114 104 97 98 103 107 114 126 127 110 117 127 146 181 190 191 197 213 230 239 245 252 256 257 254 246 239 236 234 231 229 227 229 228 224 223 220 214 210 207 204 205 208 208 208 211 212 211 216 221 221 222 225 222 220 234 254 261 270 285 300 311 315 316 316 314 312 308 303 301 300 300 300 301 304 306 306 306 308 315 319 317 313 311 309
124 120 117 115 119 122 123 128 134 142 149 148 151 155 154 161 179 202 226 234 236 237 237 240 244 245 244 243 242 240 233 228 231 232 228 224 220 213 208 204 201 200 202 205 209 208 208 208 211 219 225 229 227 226 242 266 274 271 271 273 277 291 306 313 316 316 314 311 307 307 307 305 305 308 311 314 315 314 313 311 308 305 304 302 299
117 115 116 120 124 127 126 123 128 143 165 176 181 170 174 196 205 215 227 230 231 229 223 222 231 238 242 243 243 242 237 233 233 231 226 224 219 210 205 203 201 200 200 202 207 209 211 212 215 220 227 234 236 243 263 277 275 272 272 272 275 282 295 304 307 306 303 300 299 300 303 300 300 306 311 312 313 314 316 316 313 310 309 303 298
112 106 107 117 121 123 128 126 128 135 141 162 175 171 192 213 221 222 224 230 237 236 225 223 230 239 246 249 247 243 241 239 235 228 224 222 214 203 200 201 201 200 202 204 207 209 213 218 225 229 232 239 247 257 269 276 275 280 278 272 272 277 286 297 298 294 290 287 288 291 292 293 296 302 307 309 313 318 323 326 324 321 318 311 305
142 132 133 142 134 125 128 131 133 132 118 101 294 272 256 250 249 246 242 243 246 246 244 245 244 247 254 256 250 240 239 240 234 227 224 219 209 198 195 195 194 196 201 205 205 208 216 223 230 237 239 243 249 256 263 268 277 285 281 271 267 272 283 289 287 285 281 279 281 283 284 289 294 298 300 302 309 315 317 318 317 317 318 316 311
156 155 162 159 146 140 148 160 157 145 146 186 257 279 281 275 267 263 262 260 253 246 249 256 257 259 261 257 245 234 234 236 232 226 221 212 200 191 189 189 188 191 198 202 209 217 224 227 227 233 244 249 249 252 259 266 274 278 272 266 269 275 283 286 284 283 280 275 273 273 276 282 288 291 293 295 301 306 309 309 310 313 315 314 310
161 163 165 163 163 167 169 167 157 143 189 247 267 276 280 281 277 266 261 265 261 247 241 248 257 261 258 247 238 230 227 226 222 216 208 199 193 188 183 183 184 189 199 210 220 226 231 234 234 239 250 255 255 256 257 259 266 273 269 267 274 281 285 289 291 290 286 279 272 271 273 276 279 283 288 290 292 296 302 305 306 306 304 300 298
165 169 169 171 176 174 171 170 171 217 287 296 295 292 288 285 281 270 260 260 262 255 246 242 247 253 252 242 233 225 215 207 203 200 194 190 189 181 173 176 182 190 203 210 214 221 230 238 244 248 252 256 258 259 256 253 257 268 274 276 280 282 283 286 289 289 289 286 280 278 277 277 276 278 280 281 280 284 292 296 296 296 297 294 291
198 187 176 193 200 180 170 170 179 223 264 281 285 290 290 288 284 275 264 260 262 264 258 246 240 241 242 239 231 222 211 199 194 194 192 193 190 179 171 175 178 186 202 210 216 227 234 238 241 247 253 256 257 258 258 256 258 263 271 278 282 281 280 282 283 284 285 285 284 284 284 283 281 279 278 279 281 286 290 290 289 291 292 289 287
223 203 195 219 214 182 180 202 211 221 242 258 269 278 281 285 286 277 266 261 260 261 263 263 257 241 230 228 226 220 207 194 190 191 193 197 194 183 178 180 183 198 215 223 230 236 237 238 241 245 252 258 260 261 262 262 265 270 274 279 281 280 280 282 284 285 285 285 285 285 285 285 284 282 282 282 283 285 285 282 281 285 285 283 282
229 218 222 234 224 205 212 221 222 228 245 256 263 274 278 280 281 275 266 263 263 261 261 264 264 238 219 216 217 213 198 187 187 190 193 199 198 189 185 187 198 218 227 229 233 232 236 244 244 241 245 253 257 260 260 262 267 272 276 279 279 278 282 287 289 288 287 286 284 282 281 280 280 283 286 287 284 281 278 276 276 275 274 274 280
258 256 260 269 268 254 242 234 239 247 251 252 255 266 274 279 279 272 264 259 259 261 261 252 216 185 203 205 201 201 193 186 190 196 199 202 200 192 185 184 203 225 237 239 236 232 237 248 244 236 237 244 252 258 262 264 267 269 273 280 283 283 287 290 289 287 287 288 287 285 282 280 281 283 285 285 284 280 276 277 276 271 266 267 274
265 265 268 273 274 268 256 244 243 244 242 243 249 255 261 267 271 269 264 256 252 258 257 220 161 154 178 183 178 186 189 189 192 194 191 190 190 186 182 185 228 263 271 262 248 246 257 264 248 236 237 246 258 269 274 278 281 282 284 286 285 285 286 286 286 289 292 293 292 290 287 284 283 283 282 281 281 278 274 274 272 266 262 264 269
260 262 266 269 271 271 266 258 251 242 237 239 244 248 254 260 261 262 262 254 248 254 232 164 146 137 138 154 168 179 190 196 191 181 175 176 181 188 191 198 289 304 307 320 315 300 304 306 276 238 242 257 271 284 292 296 297 298 298 296 292 291 292 292 293 296 297 296 295 293 291 289 285 284 283 281 280 278 275 273 270 266 263 263 265
261 260 260 261 262 264 265 264 257 248 244 244 244 245 248 253 255 257 258 249 223 194 164 151 144 136 132 144 166 179 186 189 180 169 167 174 181 191 203 223 288 312 309 319 322 313 313 314 297 256 269 290 301 305 306 308 309 309 310 309 306 304 302 299 298 298 295 294 294 293 294 293 290 287 285 283 281 280 278 277 276 273 270 267 265
263 263 263 263 264 265 265 264 260 252 246 245 247 246 244 247 253 254 246 218 167 159 159 150 143 140 137 143 160 170 172 172 169 166 169 177 184 192 208 233 264 289 286 279 285 298 305 305 295 287 297 306 312 316 317 317 317 317 316 314 311 307 302 298 296 293 290 289 289 290 290 290 287 285 284 282 282 281 281 281 281 280 278 275 273
265 264 264 263 264 264 263 261 258 252 249 249 247 241 238 243 250 243 214 175 155 153 154 149 148 146 140 139 150 159 162 162 163 167 170 174 183 194 207 228 252 275 276 268 271 283 286 283 281 284 292 301 310 317 322 323 321 319 316 314 310 304 300 296 293 290 288 288 287 286 286 284 282 280 280 279 280 279 280 281 281 281 282 283 282
266 264 264 265 263 262 263 264 261 253 248 249 246 241 238 236 223 175 153 160 162 155 151 153 154 151 145 142 146 152 157 156 156 158 162 164 169 175 185 206 258 311 313 296 281 279 281 283 284 287 294 302 307 309 311 317 320 319 316 314 310 305 300 294 288 286 287 286 285 283 281 281 281 281 282 281 279 278 278 278 278 277 279 280 280
255 253 252 252 254 256 257 261 266 265 256 250 248 246 239 205 170 156 158 175 174 158 154 158 156 151 149 147 147 150 150 149 149 149 151 152 150 145 147 146 3 341 332 321 293 280 281 283 286 293 302 303 297 292 294 308 320 321 318 316 313 309 303 295 291 292 291 290 290 288 286 286 285 285 285 281 277 276 276 276 275 273 272 273 274
247 251 248 244 244 247 248 250 258 267 267 264 259 253 236 184 169 172 184 193 181 165 163 164 160 156 153 150 151 154 152 150 153 154 155 158 157 155 188 236 285 314 308 293 285 290 293 291 291 300 309 309 302 295 292 303 317 321 320 320 317 313 310 306 303 301 296 293 291 289 289 290 289 288 286 282 279 278 277 275 274 273 271 269 268
257 264 269 269 265 262 262 259 253 253 259 267 266 241 224 204 188 185 193 197 185 174 172 172 169 165 160 156 156 157 156 156 158 158 160 161 159 163 181 204 228 266 276 279 289 300 307 307 305 310 317 323 327 323 315 316 321 320 317 315 312 308 307 306 303 301 297 295 293 293 293 293 291 289 287 284 282 282 281 278 275 274 274 271 268
272 268 270 277 278 274 272 267 258 252 245 214 168 175 191 198 194 195 209 210 195 184 180 177 172 163 156 154 154 150 147 149 152 154 158 159 160 169 188 217 246 267 284 297 305 312 315 310 310 323 335 339 337 332 324 319 316 313 311 311 309 308 308 307 304 302 301 301 300 299 299 297 294 292 290 286 283 282 281 281 279 278 277 271 267
270 264 260 261 265 268 267 261 259 256 216 160 154 156 159 171 190 207 219 213 195 184 177 169 163 156 150 150 153 151 146 143 142 146 152 155 159 174 197 228 269 295 339 348 333 312 311 318 326 340 346 338 328 323 320 316 314 313 314 315 314 312 311 307 304 302 300 299 298 296 295 295 293 292 289 285 283 282 279 279 279 278 276 270 267
264 258 253 249 250 254 256 258 261 248 179 156 153 143 132 134 154 176 182 174 166 165 161 156 156 155 148 143 143 143 137 133 135 139 140 138 144 162 153 100 69 62 45 17 345 316 320 335 342 341 336 329 324 323 322 320 318 316 315 314 312 309 306 302 301 299 296 294 292 290 290 289 288 288 286 283 281 280 277 276 275 273 271 269 267
262 256 250 246 243 242 246 253 249 198 155 150 149 140 130 122 119 125 140 149 151 149 145 144 147 148 142 137 135 131 127 129 134 131 123 123 133 134 124 99 78 64 31 348 325 324 344 352 345 336 331 327 325 323 320 317 314 313 312 310 307 306 304 301 301 299 296 292 290 288 287 286 285 285 283 281 280 278 275 272 270 268 267 265 264
254 252 249 245 241 239 240 235 203 166 152 148 147 145 140 132 123 118 121 131 138 138 134 133 135 134 132 132 132 132 133 136 137 131 127 134 134 131 131 131 107 71 29 340 318 338 1 357 342 333 330 326 324 322 319 316 315 314 313 310 308 307 306 304 302 299 294 292 289 287 285 285 285 283 281 279 276 274 272 270 268 266 264 262 261
250 249 247 242 240 239 231 203 176 162 154 150 149 148 146 140 133 126 121 119 121 123 124 128 133 134 134 133 135 137 138 135 130 126 123 124 129 138 163 214 224 233 328 314 321 351 360 347 335 332 330 327 326 323 321 320 319 317 315 312 309 308 307 305 302 299 296 293 290 288 287 286 285 283 281 278 275 272 269 268 266 263 259 257 256
250 249 247 243 239 231 208 183 169 157 150 149 150 148 144 140 135 129 124 120 115 112 114 119 125 132 135 136 137 135 129 120 115 113 114 120 135 176 246 262 262 265 283 296 327 354 353 340 335 334 331 329 328 326 325 324 323 321 318 314 311 309 308 306 303 300 298 296 293 291 291 289 287 284 281 278 274 271 269 267 264 261 259 258 257
247 248 246 240 230 211 187 172 162 153 149 148 144 141 139 135 130 127 125 123 121 118 117 120 124 130 135 138 138 134 128 124 120 117 117 122 131 284 294 297 324 7 354 342 352 356 347 340 338 336 334 331 329 326 325 326 325 323 319 316 313 311 308 306 305 303 301 299 296 294 293 291 289 286 282 277 273 270 267 265 264 261 259 258 258
241 240 234 220 206 188 168 157 152 151 148 143 139 137 135 131 129 128 126 124 125 128 131 134 136 139 142 146 147 145 143 144 144 140 133 127 111 329 322 342 19 18 356 352 357 353 344 340 339 337 332 327 325 324 324 323 323 322 321 319 316 313 310 308 307 306 304 301 299 296 294 292 290 287 283 278 273 271 268 266 264 262 260 259 258
231 230 224 208 187 167 151 144 143 144 142 138 137 136 133 130 130 128 127 130 136 140 142 145 147 149 153 159 161 161 164 171 177 181 183 185 198 300 340 12 34 14 352 352 356 350 342 339 337 334 330 326 325 326 324 322 322 322 322 321 319 317 315 313 311 308 306 303 301 298 296 294 292 290 285 279 275 273 271 268 265 263 261 260 257
217 212 206 191 168 149 140 137 139 140 140 138 138 137 135 135 136 136 138 144 148 149 151 154 156 158 162 166 169 172 182 195 205 215 223 218 209 223 16 26 27 6 348 349 352 345 339 338 337 333 331 330 330 329 326 324 324 323 323 322 320 319 319 317 313 310 308 305 303 302 300 297 296 294 289 283 278 275 273 271 267 263 260 258 255
169 160 155 150 142 137 136 138 140 140 140 138 138 139 142 145 148 150 153 157 162 165 167 169 171 174 175 176 176 182 201 222 226 223 217 196 121 66 44 25 9 357 351 354 351 341 336 336 335 333 332 332 332 330 328 328 328 327 326 323 321 319 319 318 315 313 310 308 307 305 303 301 300 297 291 286 282 278 276 273 269 264 261 258 255
130 128 128 130 132 132 134 136 138 139 139 141 144 149 155 157 156 157 163 170 174 172 167 163 162 165 170 175 180 185 207 237 222 174 110 72 65 59 39 11 357 1 3 355 345 337 335 335 333 332 333 332 331 331 332 334 334 332 330 327 324 321 320 319 318 317 315 313 312 310 308 306 305 301 295 291 289 285 280 275 271 267 262 257 253
114 116 120 125 129 130 131 133 136 139 143 146 149 155 158 157 155 162 173 176 163 146 137 134 138 147 156 168 177 169 115 53 82 95 77 57 60 49 11 358 11 19 8 351 340 336 337 337 334 332 333 336 338 339 338 338 338 335 332 329 327 324 323 322 323 322 321 319 318 317 316 314 313 309 306 304 302 297 291 284 277 269 261 254 249
112 115 119 122 123 123 125 129 133 137 141 144 149 156 160 159 163 173 176 157 131 121 118 118 125 138 145 146 154 155 121 64 68 86 74 60 50 8 348 356 11 11 355 343 339 337 336 336 334 331 334 342 348 346 343 342 341 338 334 331 329 328 328 328 328 328 327 327 327 325 324 324 322 319 317 316 313 310 306 297 282 268 259 253 246
108 107 107 109 110 112 117 123 127 132 138 143 150 156 157 154 153 153 138 119 113 112 110 108 110 115 115 119 138 157 148 116 93 63 46 40 28 18 12 5 2 359 352 345 341 339 338 335 332 331 337 348 353 350 347 347 345 340 336 334 333 333 334 333 334 335 336 336 335 334 333 333 331 327 325 325 323 321 322 315 291 270 261 255 247
100 101 104 106 106 107 109 111 111 112 115 117 117 118 118 116 112 106 102 102 105 107 107 108 110 111 114 122 131 115 105 111 99 47 21 7 9 28 24 1 346 347 353 346 340 339 338 333 332 336 345 352 354 352 349 349 347 344 341 337 336 339 340 341 343 345 346 345 344 342 340 339 338 336 338 340 336 330 331 330 314 287 269 256 244
87 91 95 96 95 94 95 97 97 97 99 99 97 96 98 100 100 100 100 101 104 109 113 116 118 116 110 105 91 76 77 84 79 52 360 333 336 352 351 338 335 341 350 345 340 337 335 331 333 342 350 352 352 350 349 349 349 347 345 344 345 347 350 351 353 354 353 351 351 349 346 345 346 346 349 354 350 340 337 338 328 309 286 261 240
82 84 87 88 88 87 89 91 93 94 93 94 95 97 100 102 104 106 105 103 104 109 112 112 110 103 91 85 86 84 75 68 72 71 316 314 333 351 333 328 334 343 354 350 340 336 335 332 332 341 349 350 349 348 350 351 350 348 348 351 354 356 357 358 359 359 358 358 358 357 355 355 356 357 359 2 356 347 350 2 354 319 284 258 222
77 79 81 84 84 84 86 89 91 92 91 92 94 98 101 102 104 105 104 102 99 100 103 102 99 94 89 85 90 96 92 82 72 26 325 334 4 358 330 330 339 346 353 352 344 340 339 333 332 341 348 349 348 349 351 352 351 351 352 356 358 359 1 2 3 3 3 4 6 7 6 7 9 9 8 10 6 358 360 19 24 2 310 188 160
75 75 77 79 79 82 86 89 90 91 93 94 94 95 95 95 95 94 95 95 91 90 93 95 93 93 95 92 84 84 84 77 57 8 346 359 9 353 335 338 344 343 347 354 351 346 341 334 335 345 350 349 349 351 351 351 353 354 354 357 359 1 4 6 6 6 6 8 11 14 15 17 21 20 17 18 21 19 20 33 49 60 85 114 132
72 73 75 78 79 82 86 89 91 92 94 94 93 91 89 88 88 86 87 87 83 80 80 79 78 81 85 83 76 73 69 63 52 18 347 349 352 347 341 341 340 344 4 8 358 350 344 339 340 348 351 350 351 350 349 350 353 354 354 356 359 2 5 9 9 9 10 11 15 18 20 23 27 27 25 26 31 35 39 50 65 82 95 105 115
70 72 74 76 78 80 82 83 85 87 88 88 88 87 84 82 81 79 79 79 77 74 71 68 65 66 69 70 68 67 64 56 41 21 355 343 340 342 343 341 340 350 4 0 351 348 346 344 344 348 351 352 351 348 347 349 353 355 355 357 360 3 6 9 10 11 13 15 17 21 24 27 30 30 29 31 35 41 49 59 70 82 94 102 110